Regional Weather Roundup
Issued by NWS

Home | Current Version | Previous Version | Graphics & Text | Print | Product List | Glossary On
Versions: 1 2 3 4 5 6 7 8 9 10 11 12 13 14 15 16 17 18 19 20 21 22 23 24 25 26 27 28 29 30 31 32 33 34 35 36 37 38 39 40 41 42 43 44 45 46 47 48 49 50
000
ASUS43 KMKX 050459
RWRWI

WISCONSIN REGIONAL WEATHER ROUNDUP
NATIONAL WEATHER SERVICE MILWAUKEE/SULLIVAN WI
1100 PM CST WED MAR 04 2015

NOTE: "FAIR" INDICATES FEW OR NO CLOUDS BELOW 12,000 FEET WITH NO
SIGNIFICANT WEATHER AND/OR OBSTRUCTIONS TO VISIBILITY.

WIZ001-002-006>008-014>016-023>028-050600-
NORTHWEST WISCONSIN

CITY           SKY/WX    TMP DP  RH WIND       PRES   REMARKS
SUPERIOR ARPT  CLEAR     -3 -14  60 W6        30.40R WCI -16
ASHLAND        CLEAR     -6 -16  61 SW7       30.36R WCI -20
HAYWARD        CLEAR    -15 -21  74 CALM      30.35R
SIREN          CLEAR     -8 -17  65 CALM      30.40R
CUMBERLAND     CLEAR     -6 -18  54 W5        30.36R WCI -17
RICE LAKE      CLEAR    -11 -18  70 W3        30.38S
CHETEK         CLEAR     -8 -13  76 W3        30.38R
LADYSMITH      CLEAR     -8 -15  69 W5        30.36S WCI -19
EAU CLAIRE     NOT AVBL
MENOMONIE      CLEAR      1 -11  57 W8        30.40S WCI -14
NEW RICHMOND   CLEAR     -6 -16  64 W3        30.41S
OSCEOLA        CLEAR     -6 -15  66 SW5       30.45R WCI -17
$$

WIZ003>005-009-010-017-018-050600-
NORTH CENTRAL WISCONSIN

CITY           SKY/WX    TMP DP  RH WIND       PRES   REMARKS
MANITOWISH WTR MOCLDY   -12 -19  73 W3        30.25R
ARBOR VITAE    CLEAR     -6 -15  66 CALM      30.25R
WOODRUFF       CLEAR     -6 -15  66 CALM      30.25R
RHINELANDER    CLEAR     -7 -14  71 W8        30.24R WCI -23
EAGLE RIVER    FAIR     -10 -18  69 CALM      30.23R
LAND O LAKES   MOCLDY    -9 -15  76 W3        30.23R
PHILLIPS       CLEAR    -11 -16  78 CALM      30.28S
TOMAHAWK       CLEAR    -13 -17  82 CALM      30.28S
MEDFORD        CLEAR     -6 -15  65 NW3       30.29R
MERRILL        CLEAR     -4 -13  62 CALM      30.29S
$$

WIZ029-030-035-036-043>047-050600-
CENTRAL WISCONSIN

CITY           SKY/WX    TMP DP  RH WIND       PRES   REMARKS
WAUSAU         CLEAR     -2 -13  59 NW6       30.29R WCI -14
MOSINEE        CLEAR      0 -11  60 NW8       30.31R WCI -15
MARSHFIELD     CLEAR     -3 -14  59 NW7       30.31S WCI -16
STEVENS POINT  CLEAR      0 -13  53 NW3       30.32R
WAUPACA        CLEAR      7 -10  45 NW5       30.35R WCI  -2
WAUTOMA        NOT AVBL
WISC RAPIDS    CLEAR      0 -13  54 NW6       30.35R WCI -12
CAMP DOUGLAS   NOT AVBL
$$

WIZ011>013-019>022-031-037>040-048>050-050600-
NORTHEAST WISCONSIN

CITY           SKY/WX    TMP DP  RH WIND       PRES   REMARKS
ANTIGO         CLEAR     -5 -13  68 NW6       30.26R WCI -18
SHAWANO        CLEAR      4 -11  51 NW3       30.34R
OCONTO         PTCLDY     2 -10  55 NW6       30.34R WCI  -9
STURGEON BAY   PTCLDY     1 -11  55 NW5       30.34R WCI  -8
GREEN BAY      PTCLDY     3 -10  54 NW5       30.34R WCI  -6
MANITOWOC      NOT AVBL
APPLETON       CLEAR      5 -13  43 NW8       30.32R WCI  -8
CLINTONVILLE   CLEAR      3  -9  55 NW3       30.34R
OSHKOSH        CLEAR      6  -9  50 NW9       30.34R WCI  -8
$$

WIZ032>034-041-042-053>061-050600-
SOUTHWEST WISCONSIN

CITY           SKY/WX    TMP DP  RH WIND       PRES   REMARKS
LA CROSSE      CLEAR      5  -7  57 NW12      30.40S WCI -11
SPARTA         CLEAR      4  -8  56 NW7       30.39R WCI  -8
VIROQUA        CLEAR      3  -6  66 NW8       30.32S WCI -11
BOSCOBEL       CLEAR      7  -4  60 CALM      30.40S
PRAIRIE DU CHI CLEAR      7  -6  55 NW8       30.40S WCI  -6
PLATTEVILLE    CLEAR      4  -4  70 W6        30.36R WCI  -7
$$

WIZ056-057-062-063-064-067-068-050600-
SOUTH CENTRAL WISCONSIN

CITY           SKY/WX    TMP DP  RH WIND       PRES   REMARKS
REEDSBURG      PTCLDY     6  -5  59 NW3       30.34S
BARABOO/DELLS  CLEAR      6  -6  57 CALM      30.34R
LONE ROCK      NOT AVBL
MINERAL POINT  CLEAR      7  -4  61 CALM      30.33R
MADISON        PTCLDY     7  -6  55 NW3       30.35R
MIDDLETON      PTCLDY    10  -5  50 NW8       30.35S WCI  -2
WATERTOWN      PTCLDY     9  -5  53 NW5       30.34R WCI   0
MONROE         FAIR       7   0  72 W8        30.33R WCI  -6
JANESVILLE     PTCLDY     3  -6  66 W5        30.36R WCI  -6
$$

WIZ051-052-058>065-066-070>072-050600-
SOUTHEAST WISCONSIN

CITY           SKY/WX    TMP DP  RH WIND       PRES   REMARKS
MILWAUKEE      PTCLDY    11  -8  42 NW10      30.35R WCI  -3
WAUKESHA       PTCLDY     7  -8  51 NW5       30.34S WCI  -2
MILWAUKEE/TIMM PTCLDY    10  -9  40 NW7       30.35R WCI   0
RACINE         PTCLDY     9  -7  48 NW6       30.36R WCI  -1
BURLINGTON     PTCLDY     3 -10  55 NW7       30.34R WCI  -9
KENOSHA        PTCLDY     1 -10  60 W7        30.34R WCI -12
FOND DU LAC    CLEAR      4  -9  55 NW7       30.34R WCI  -8
SHEBOYGAN      CLEAR      7  -9  48 NW7       30.33R WCI  -5
WEST BEND      PTCLDY     9  -9  43 W6        30.32S WCI  -1
JUNEAU         PTCLDY     6  -7  55 NW3       30.34R
$$

LSZ147-162-050600-
LAKE SUPERIOR

STATION/POSITION TIME  TEMP    WIND        PRES    WAVE
                       AIR SEA DIR/SP/G            HT/PER
                 (UTC) (F)     (DEG/KT/KT) (MB)    (FT/S)
DEVILS ISLAND    0400    5     340/ 11/ 13 1028.5R
PORT WING        0440    4     290/  9/ 14 1028.4R
SAXON HARBOR     0400    1     220/  5/  7 1026.8R
$$

LMZ867-665-643>646-050600-
LAKE MICHIGAN

STATION/POSITION TIME  TEMP    WIND        PRES    WAVE
                       AIR SEA DIR/SP/G            HT/PER
                 (UTC) (F)     (DEG/KT/KT) (MB)    (FT/S)
NORTHPORT PIER   0411    8     320/ 19     1025.7R
KEWAUNEE LAKESHO 0400    7     320/  5/  8 1025.2R
SHEBOYGAN LAKESH 0400   10     300/ 11/ 15 1028.5R
PORT WASHINGTON  0400   10     300/  5/ 10 1028.1R
MILWAUKEE LAKESH 0400   13     340/  9/ 13   N/A
KENOSHA   LAKESH 0400   12     280/  7/ 10 1027.4R
$$

TC  - TEMPERATURE IN CELSIUS
VSB - VISIBILITY IN STATUTE MILES
WCI - WIND CHILL INDEX
HX  - HEAT INDEX



USA.gov is the U.S. government's official web portal to all federal, state and local government web resources and services.